This is the latest recevied weather packets stored in our database for station/object VE6EN. If no packets are shown the sender has not sent any weather packets the latest 10 day(s).
| Time | Temp. | Humidity | Pressure | Rain* | Wind** | Luminosity | Snow |
|---|---|---|---|---|---|---|---|
| 1787866804 | 26.11° C | 33% | 1009.1 hPa | 0 mm | - | - | - |
| 1787866204 | 26.67° C | 34% | 1009.1 hPa | 0 mm | - | - | - |
| 1787865603 | 26.67° C | 34% | 1009.3 hPa | 0 mm | - | - | - |
| 1787865002 | 26.67° C | 36% | 1009.5 hPa | 0 mm | - | - | - |
| 1787864404 | 26.11° C | 36% | 1009.6 hPa | 0 mm | - | - | - |
| 1787863803 | 25.56° C | 36% | 1009.8 hPa | 0 mm | - | - | - |
| 1787863203 | 25.56° C | 36% | 1009.9 hPa | 0 mm | - | - | - |
| 1787862604 | 25.56° C | 36% | 1009.9 hPa | 0 mm | - | - | - |
| 1787862003 | 25.56° C | 34% | 1010.1 hPa | 0 mm | - | - | - |
| 1787861404 | 25.56° C | 35% | 1010.2 hPa | 0 mm | - | - | - |
| 1787860804 | 25° C | 34% | 1010.4 hPa | 0 mm | - | - | - |
| 1787860204 | 24.44° C | 38% | 1010.6 hPa | 0 mm | - | - | - |
| 1787859603 | 23.89° C | 46% | 1010.7 hPa | 0 mm | - | - | - |
| 1787859005 | 22.78° C | 46% | 1010.8 hPa | 0 mm | - | - | - |
| 1787858406 | 22.22° C | 48% | 1011 hPa | 0 mm | - | - | - |
| 1787857803 | 21.67° C | 50% | 1011.1 hPa | 0 mm | - | - | - |
| 1787857212 | 21.11° C | 48% | 1011.1 hPa | 0 mm | - | - | - |
| 1787856605 | 20.56° C | 50% | 1011.2 hPa | 0 mm | - | - | - |
| 1787856003 | 20° C | 53% | 1011.4 hPa | 0 mm | - | - | - |
| 1787855405 | 19.44° C | 53% | 1011.5 hPa | 0 mm | - | - | - |
| 1787854812 | 19.44° C | 50% | 1011.7 hPa | 0 mm | - | - | - |
| 1787854206 | 18.89° C | 55% | 1011.7 hPa | 0 mm | - | - | - |
| 1787853607 | 18.33° C | 55% | 1011.8 hPa | 0 mm | - | - | - |
| 1787853024 | 18.33° C | 52% | 1011.9 hPa | 0 mm | - | - | - |
| 1787852407 | 18.33° C | 55% | 1012.1 hPa | 0 mm | - | - | - |
* Rain latest hour (hover to see other rain measurements)
** Current wind speed in m/s (hover to see current wind gust speed)